SITRO-AIS C

Last updated on Sun Apr 21 2024 00:03:33 GMT+0000 (Coordinated Universal Time)

1 59053U 24039C 24111.60068598 .00035753 00000+0 14354-2 0 9992 2 59053 97.3877 74.2141 0021776 65.3623 294.9880 15.24655953 7802

Satellite not in orbit

SITRO-AIS C